Location: Kapla
(46.2483°N, 15.0094°E)
Time: 11:45:01
(UTC+00:00)

Nadezhda 3 Rocket - Pass Details

Date: 02 July 2021
Orbit: 958 x 998 km, 82.9° (Epoch: 26 July)

Event Time Altitude Azimuth Distance (km) Brightness Sun altitude
Rises 01:44:16 0° 7° (N) 3,708 8.2 -11.8°
Reaches altitude 10° 01:50:15 10° 50° (NE) 2,764 7.8 -11.2°
Maximum altitude 01:50:48 10° 56° (NE) 2,756 7.7 -11.1°
Drops below altitude 10° 01:51:22 10° 61° (ENE) 2,764 7.6 -11.0°
Sets 01:57:20 0° 104° (ESE) 3,713 7.4 -10.4°
